Weather Roundup
Issued by NWS Corpus Christi, TX

Home | Current Version | Previous Version | Text Only | Print | Product List | Glossary On
Versions: 1 2 3 4 5 6 7 8 9 10 11 12 13 14 15 16 17 18 19 20 21 22 23 24 25 26 27 28 29 30 31 32 33 34 35 36 37 38 39 40 41 42 43 44 45 46 47 48 49 50
000
ASUS44 KCRP 300210
HRRCRP

SOUTH TEXAS REGIONAL WEATHER ROUNDUP
NATIONAL WEATHER SERVICE CORPUS CHRISTI TX
900 PM CDT FRI JUL 29 2016


TXZ229>244-300300-
...CORPUS CHRISTI AREA OBSERVATIONS...

CITY           SKY/WX    TMP DP  RH WIND       PRES   REMARKS
CORPUS CHRISTI PTCLDY    85  77  77 SE15      29.95R HX  95
NAS CORPUS CHR   N/A    N/A N/A N/A MISG      29.94R
ROCKPORT       CLEAR     85  76  74 SE17      29.94R HX  94
KINGSVILLE NAS CLEAR     83  78  85 SE13      29.94R HX  93
ALICE          CLEAR     83  74  74 SE9       29.94R
FALFURRIAS     CLEAR     81  74  81 SE7       29.93R
$$

...VICTORIA AREA OBSERVATIONS...

CITY           SKY/WX    TMP DP  RH WIND       PRES   REMARKS
VICTORIA       CLEAR     83  74  74 S9        29.94R
BEEVILLE       FAIR      81  76  86 SE7       29.94R
PLEASANTON     CLOUDY    82  70  66 E3        29.94R
SAN ANTONIO    MOCLDY    83  67  58 SE10      29.95R
$$

...LAREDO AREA OBSERVATIONS...

CITY           SKY/WX    TMP DP  RH WIND       PRES   REMARKS
LAREDO         PTCLDY    81  73  76 NE9       29.93R
COTULLA        CLEAR     81  74  79 SE8       29.93R
DEL RIO        CLEAR     89  65  44 SE8       29.91R HX  91
MCALLEN        CLEAR     90  71  53 SE16G25   29.92R HX  96
HEBBRONVILLE   PTCLDY    84  70  62 E8        29.96R
$$

...OTHER TEXAS OBSERVATIONS...

CITY           SKY/WX    TMP DP  RH WIND       PRES   REMARKS
BROWNSVILLE    CLEAR     84  76  76 SE13      29.94R HX  93
HOUSTON        PTCLDY    86  73  65 S7        29.95S HX  93
COL. STATION   CLEAR     88  73  61 SE12      29.93R HX  95
AUSTIN         PTCLDY    87  73  62 S9        29.91S HX  94
WACO           CLEAR     86  70  58 E5        29.91R HX  90
FORT WORTH     PTCLDY    88  68  51 S6        29.90R HX  91
WICHITA FALLS  CLEAR     86  70  58 S9        29.90R HX  90
LUBBOCK        PTCLDY    88  56  33 S10       30.02R
EL PASO        MOCLDY    92  48  22 E14       29.97R
$$

...MARINE OBSERVATIONS...

STATION/POSITION TIME  SKY/WX   TEMP    WIND        PRES    VSBY  WAVE   SWELL
                                AIR SEA DIR/SP/G                  HT/PER HT/PER
                 (UTC)          (F)     (DEG/KT/KT) (MB)    (MI)  (FT/S) (FT/S)
PORT ARANSAS     0200            85 90  120/ 14/ 17 1014.1R
BUOY 90 E PORT A 0150            86 87  100/ 12/ 14 1014.5F         2/ 5   2/ 7
BUOY 45 SE BAFFI 0150            85 86  120/ 14/ 16 1013.5R         3/ 6   2/ 6
BUOY 200 E PT IS 0150            86 87  110/  8/ 10 1014.3F         2/ 7   2/ 7
BUOY 15 E GALVES 0150            87 89  160/ 12/ 14 1014.7S         2/ 6   2/ 6
$$




USA.gov is the U.S. government's official web portal to all federal, state and local government web resources and services.